Regional Weather Roundup
Issued by NWS

Home | Current Version | Previous Version | Graphics & Text | Print | Product List | Glossary On
Versions: 1 2 3 4 5 6 7 8 9 10 11 12 13 14 15 16 17 18 19 20 21 22 23 24 25 26 27 28 29 30 31 32 33 34 35 36 37 38 39 40 41 42 43 44 45 46 47 48 49 50
913
ASUS43 KOAX 281210
RWRNE

WEATHER ROUNDUP FOR NEBRASKA
NATIONAL WEATHER SERVICE OMAHA NE
700 AM CDT THU JUL 28 2016

NOTES: SATELLITE DATA IS BEING USED TO AUGMENT CLOUD COVER ABOVE
       12000 FEET.
       "FAIR" INDICATES FEW OR NO CLOUDS BELOW 12,000 FEET WITH NO
       SIGNIFICANT WEATHER AND/OR OBSTRUCTIONS TO VISIBILITY.

  * THESE STATIONS DO NOT REPORT WEATHER SUCH AS RAIN...SNOW OR FOG.

NEZ001>004-019>022-054>056-281300-
NEBRASKA PANHANDLE

CITY           SKY/WX    TMP DP  RH WIND       PRES   REMARKS
SCOTTSBLUFF    CLOUDY    62  54  74 NE21G28   30.20R
6HR MIN TEMP:  60; 6HR MAX TEMP:  68;

ALLIANCE       TSTM      59  57  93 NE22G28   30.19F
6HR MIN TEMP:  53; 6HR MAX TEMP:  64; 6HR PCP:  0.22;

CHADRON        CLOUDY    63  56  78 SE22      30.08F
6HR MIN TEMP:  61; 6HR MAX TEMP:  70; 6HR PCP:  0.20;

KIMBALL        PTCLDY    59  59 100 NE9       30.21R FOG
SIDNEY         CLOUDY    59  57  93 CALM      30.16R
6HR MIN TEMP:  59; 6HR MAX TEMP:  68; 6HR PCP:  0.14;

$$

NEZ057>060-069>072-079>082-281300-
SOUTHWEST NEBRASKA

CITY           SKY/WX    TMP DP  RH WIND       PRES   REMARKS
NORTH PLATTE   CLOUDY    61  59  93 CALM      30.12R
6HR MIN TEMP:  61; 6HR MAX TEMP:  66;

IMPERIAL       CLOUDY    63  61  93 CALM      30.11R
6HR MIN TEMP:  62; 6HR MAX TEMP:  70; 6HR PCP:  0.86;

LEXINGTON      MOCLDY    63  61  92 CALM      30.11S
MCCOOK         MOCLDY    66  64  93 E10       30.07S FOG
6HR MIN TEMP:  66; 6HR MAX TEMP:  72;

OGALLALA       CLOUDY    63  59  89 E8        30.11S
$$

NEZ005>010-023>029-035>040-094-281300-
NORTH CENTRAL NEBRASKA

CITY           SKY/WX    TMP DP  RH WIND       PRES   REMARKS
VALENTINE      CLOUDY    57  55  93 MISG      30.15R
6HR MIN TEMP:  56; 6HR MAX TEMP:  60;

AINSWORTH      CLOUDY    58  57  98 CALM      30.13R
BROKEN BOW     PTCLDY    59  58  96 N7        30.11R
6HR MIN TEMP:  57; 6HR MAX TEMP:  64;

O`NEILL        MOCLDY    63  62  96 CALM      30.12R
ORD            PTCLDY    61  58  90 N3        30.09R
6HR MIN TEMP:  59; 6HR MAX TEMP:  63;

THEDFORD       CLOUDY    58  57  96 N3        30.15R
$$

NEZ041-046>049-061>064-073>077-083>087-281300-
SOUTH CENTRAL NEBRASKA

CITY           SKY/WX    TMP DP  RH WIND       PRES   REMARKS
GRAND ISLAND   PTCLDY    62  60  93 NW5       30.09R
6HR MIN TEMP:  61; 6HR MAX TEMP:  67;

AURORA         CLOUDY    62  61  98 NW5       30.08R
HASTINGS       PTCLDY    63  60  90 N6        30.10R
6HR MIN TEMP:  62; 6HR MAX TEMP:  70;

HEBRON         PTCLDY    65  63  93 CALM      30.06R
HOLDREGE       MOCLDY    63  61  92 N3        30.10R
KEARNEY *      PTCLDY    63   7  11 N6        30.11R
YORK           CLOUDY    63  63 100 N3        30.07R
$$

NEZ011>018-030>034-042>045-281300-
NORTHEAST NEBRASKA

CITY           SKY/WX    TMP DP  RH WIND       PRES   REMARKS
NORFOLK        CLEAR     63  62  97 CALM      30.07R
6HR MIN TEMP:  61; 6HR MAX TEMP:  68;

ALBION         CLEAR     60  58  92 N6        30.08S
BLAIR          CLEAR     68  66  93 N6        30.03R
FREMONT        PTCLDY    66  65  95 W3        30.06R
TEKAMAH        CLEAR     66  63  90 N6        30.03R
6HR MIN TEMP:  65; 6HR MAX TEMP:  73; 6HR PCP: TRACE;

WAYNE          CLEAR     63  61  94 NW5       30.08R
$$

NEZ050>053-065>068-078-088>093-281300-
SOUTHEAST NEBRASKA

CITY           SKY/WX    TMP DP  RH WIND       PRES   REMARKS
LINCOLN        CLEAR     66  64  93 N7        30.05R
6HR MIN TEMP:  66; 6HR MAX TEMP:  74; 6HR PCP: TRACE;

OMAHA EPPLEY   PTCLDY    70  66  87 N5        30.02R
6HR MIN TEMP:  70; 6HR MAX TEMP:  76;

BEATRICE       CLEAR     65  62  93 NW3       30.03R
FALLS CITY     CLOUDY    70  69  97 NW7       29.99R
6HR MIN TEMP:  69; 6HR MAX TEMP:  73;

NEBRASKA CITY  CLOUDY    69  69 100 N5        30.02R
PLATTSMOUTH    CLOUDY    71  69  94 NW3       30.03R
$$

NEZ044-045-051>053-067-281300-
OMAHA AREA

CITY           SKY/WX    TMP DP  RH WIND       PRES   REMARKS
OMAHA EPPLEY   PTCLDY    70  66  87 N5        30.02R
6HR MIN TEMP:  70; 6HR MAX TEMP:  76;

BLAIR          CLEAR     68  66  93 N6        30.03R
FREMONT        PTCLDY    66  65  95 W3        30.06R
MILLARD        PTCLDY    72  67  84 CALM      30.03R
OFFUTT AFB     CLOUDY    71  67  88 NW2       30.02R
PLATTSMOUTH    CLOUDY    71  69  94 NW3       30.03R
WAHOO          PTSUNNY   67  65  93 NW5       30.05R
$$




USA.gov is the U.S. government's official web portal to all federal, state and local government web resources and services.